Location: Spring Creek
(38.2870°N, 100.2160°W)
Time: 09:14:22
(UTC+00:00)

Cosmos 841 Rocket - Pass Details

Date: 08 May 2021
Orbit: 748 x 771 km, 74.0° (Epoch: 21 June)

Event Time Altitude Azimuth Distance (km) Brightness Sun altitude
Rises 02:04:44 0° 343° (NNW) 3,211 7.5 -5.5°
Reaches altitude 10° 02:07:07 10° 345° (NNW) 2,279 6.6 -6.0°
Maximum altitude 02:12:17 76° 71° (ENE) 775 3.5 -6.9°
Drops below altitude 10° 02:17:23 10° 157° (SSE) 2,257 5.5 -7.7°
Enters shadow 02:19:11 - 159° (SSE) 2,959 6.1 -8.0°
